Location: Bishopstone
(51.0167°N, 1.9000°W)
Time: 03:18:09
(UTC+00:00)

NOSS 3-4 (A) - Pass Details

Date: 16 September 2019
Orbit: 910 x 1303 km, 63.4° (Epoch: 21 September)

Event Time Altitude Azimuth Distance (km) Brightness Sun altitude
Rises 19:26:05 0° 315° (NW) 3,780 7.8 -11.0°
Reaches altitude 10° 19:28:36 10° 316° (NW) 2,877 7.0 -11.3°
Maximum altitude 19:35:29 83° 45° (NE) 1,145 3.8 -12.4°
Enters shadow 19:42:03 15° 133° (SE) 2,804 5.3 -13.3°
